Live-Position
3D-Globus wird geladen...
Über Starlink 5303
Group: 3 satellites
Beschreibung wird geladen...
Nächste Überflüge
Passes for default location (London). Set your location on the main map for personalized predictions.
Höhenverlauf
Loading altitude history...
No altitude history available
Zweizeiliger Elementsatz
1 55630U 23021C 26121.87680508 .00000337 00000-0 36023-4 0 9992
2 55630 70.0001 70.4146 0002997 272.1575 87.9241 14.98330993176269
Epoch: 1. Mai 2026 •
Age: 9 hours
Aktueller Status
Höhe 574.7 km
Geschwindigkeit 7.57 km/s
Subsatellitenpunkt 18.48°N,
64.13°W
Startdatum 17. Feb. 2023
Alter 3.2 years
Typ internet
Startgruppe
Falcon 9 •
Group 2-5 •
44 satellites
Starlink 5484
55628
Starlink 5497 55629
Starlink 5558 55631
Starlink 5546 55632
Starlink 5498 55633
Starlink 5500 55634
Starlink 5495 55635
Starlink 5218 55636
Starlink 5062 55637
Starlink 5507 55638
Starlink 5508 55639
Starlink 5069 55640
Starlink 5065 55641
Starlink 5483 55643
Starlink 5502 55644
Starlink 5510 55647
Starlink 5501 55648
Starlink 5469 55649
Starlink 5494 55650
Starlink 5506 55651
...and 23 more
Technische Details
Klassifizierung Payload
Masse 305.00 kg
Trockenmasse 290.00 kg
Gesamtmasse 305.00 kg
Länge 0.20 m
Durchmesser 2.80 m
Spannweite 9.00 m
Form Box + pan
Hersteller SPXS
Bus-Typ Starlink
Phasenstatus In Orbit
Besitzer/Staat SPXS/US
Most Searched
Loading...